sat.trackr.live / text

‹ back to catalog

HULIANWANG DIGUI-143

NORAD 67441 · 2026-007G

PAYLOAD ACTIVE UNKNOWN

§ Identity

Operator
Country
PRC
Launch date
2026-01-13
Launch site
WSC
Launch vehicle
Mass (kg)
RCS (m²)

External: N2YO · Heavens-Above · Gunter

§ Orbital elements

Epoch: 2026-09-20T21:49:37.763040Z

Period
108.33 min
Inclination
50.0090°
Eccentricity
0.0000438
Mean motion
13.29328773 rev/d
Perigee alt
1,149.0 km
Apogee alt
1,149.6 km
Semi-major
7,527.4 km
B*
5.0498e-5
RAAN
102.3961°
Arg perigee
50.9909°
Mean anomaly
309.1002°
Rev number
3,352

§ Raw data

HULIANWANG DIGUI-1431 67441U 26007G   26263.90946485 -.00000101  00000+0  50498-4 0  99932 67441  50.0090 102.3961 0000438  50.9909 309.1002 13.29328773 33520

JSON: /api/v1/satellites/67441 · /tle

For live sub-satellite position, see the globe view (requires WebGL).

§ Visibility from observer

Set your observer location to see the next 7 days of passes ≥ 10°. The values pass through the URL so the page stays shareable.

No JS? Fill the form by hand. The geolocation button needs JavaScript.